Flag for Italy Weather past 2 weeks in Palermo, Italy

Now
75 °F

Passing clouds.


Feels Like: 77 °F
Forecast: 74 / 81 °F
Wind: 21 mph from West

Location: Palermo / Punta Raisi

Current Time: Jul 30, 2014 at 12:04:19 PM

Latest Report: Jul 30, 2014 at 11:20 AM


Visibility: N/A

Pressure: 29.86 "Hg

Humidity: 69%

Dew point: 64 °F

Location of PalermoLocation

Historic Weather in Palermo — Graph

°F

Palermo temperature yesterday

Maximum temperature yesterday: 91 °F (at 6:50 PM)
Minimum temperature yesterday: 70 °F (at 6:50 AM)
Average temperature yesterday: 82 °F

Past Weeks' High & Low Weather Summary

 TemperatureHumidityPressure
High99 °F (Jul 26, 1:20 PM)89% (Jul 17, 7:20 AM)30.07 "Hg (Jul 17, 7:20 AM)
Low70 °F (Jul 24, 6:20 AM)18% (Jul 26, 3:20 PM)29.68 "Hg (Jul 29, 11:50 PM)
Average78 °F71%29.94 "Hg
* Reported Jul 15 10:20 AM — Jul 30 10:50 AM, Palermo, Weather by CustomWeather, © 2014

Note: Actual official high and low records may vary slightly from our data, if they occured in-between our weather recording intervals... More about our weather records

Advertising

Palermo weather history for previous 24 hours

 ConditionsComfort  
Time TempWeatherWind HumidityBarometerVisibility
10:50 AM
Jul 30
75 °FScattered clouds.22 mph69%29.86 "HgN/A
10:20 AM75 °FScattered clouds.22 mph69%29.86 "HgN/A
9:50 AM75 °FScattered clouds.23 mph74%29.86 "HgN/A
9:20 AM75 °FScattered clouds.23 mph78%29.83 "HgN/A
8:50 AM75 °FScattered clouds.18 mph78%29.83 "HgN/A
8:20 AM75 °FScattered clouds.17 mph78%29.83 "HgN/A
7:50 AM77 °FScattered clouds.13 mph83%29.83 "HgN/A
7:20 AM77 °FScattered clouds.17 mph83%29.83 "HgN/A
6:50 AM77 °FPassing clouds.8 mph74%29.83 "HgN/A
6:20 AM77 °FPassing clouds.10 mph74%29.83 "HgN/A
5:50 AM77 °FPassing clouds.14 mph83%29.83 "HgN/A
5:20 AM77 °FPassing clouds.15 mph83%29.80 "HgN/A
4:50 AM77 °FPassing clouds.17 mph79%29.83 "HgN/A
1:50 AM79 °FClear.18 mph74%29.80 "Hg10 mi
1:20 AM79 °FClear.21 mph74%29.80 "Hg10 mi
12:50 AM82 °FPassing clouds.17 mph58%29.80 "HgN/A
12:20 AM81 °FClear.23 mph58%29.77 "Hg10 mi
11:50 PM
Jul 29
88 °FClear.21 mph29%29.68 "Hg10 mi
11:20 PM84 °FClear.17 mph35%29.77 "Hg10 mi
10:50 PM86 °FClear.28 mph29%29.80 "Hg10 mi
10:20 PM88 °FClear.31 mph21%29.83 "Hg10 mi
9:50 PM88 °FPassing clouds.18 mph22%29.77 "HgN/A
9:20 PM88 °FClear.16 mph24%29.77 "Hg10 mi
8:50 PM88 °FSunny.14 mph27%29.74 "Hg10 mi
8:20 PM88 °FSunny.13 mph27%29.74 "Hg10 mi
7:50 PM90 °FSunny.15 mph27%29.74 "Hg10 mi
7:20 PM90 °FSunny.16 mph29%29.74 "Hg10 mi
6:50 PM91 °FSunny.17 mph30%29.74 "Hg10 mi
6:20 PM90 °FSunny.17 mph36%29.77 "Hg10 mi
5:50 PM86 °FSunny.16 mph52%29.77 "Hg10 mi
5:20 PM88 °FSunny.15 mph46%29.77 "Hg10 mi
4:50 PM84 °FSunny.6 mph66%29.80 "Hg10 mi
4:20 PM86 °FPassing clouds.5 mph66%29.80 "HgN/A
3:50 PM84 °FSunny.8 mph70%29.80 "Hg10 mi
3:20 PM88 °FSunny.13 mph55%29.80 "Hg10 mi
2:50 PM84 °FSunny.14 mph70%29.80 "Hg10 mi
2:20 PM84 °FSunny.14 mph66%29.80 "Hg10 mi
1:50 PM86 °FSunny.10 mph59%29.83 "Hg10 mi
1:20 PM86 °FSunny.7 mph62%29.83 "Hg10 mi
12:50 PM86 °FSunny.6 mph52%29.83 "Hg10 mi
12:20 PM86 °FSunny.7 mph49%29.83 "Hg10 mi
Weather by CustomWeather, © 2014

See weather overviewHow to use our weather pages